星链-4520 (STARLINK-4520 )

导读

STARLINK-4520是美国SpaceX公司星链(Starlink)互联网卫星星座的一员,于2022年8月10日发射入轨,属于低轨通信卫星。星链星座旨在为全球提供高速低延迟宽带互联网服务,该卫星采用平板设计,配备霍尔推进器与自主避撞系统,服役寿命约5-7年,退役后会主动离轨再入大气层烧毁,助力全球覆盖的天基通信网络构建。

基本信息
目录编号:
53400
目录名称:
STARLINK-4520
国际标识:
2022-097N
轨道中心:
EARTH
卫星名称:
星链-4520
卫星全名:
星链-4520 (STARLINK-4520 )
卫星状态:
在轨 (已飞行1405 天)
发射日期:
2022-08-10 UTC
国别 :
美国 (US)
星等 :
--
轨道信息
数据来源 国际轨道数据
星历时间: 2026-06-15T07:23:51+0800
6小时前
查看轨道信息
半长轴: 6917.918km
偏心率: 0.0001449
轨道倾角: 53.161°
近地点辐角 86.169°
升交点赤经 47.309°
平近点角 273.947°
近地点: 538.778km
远地点: 540.784km
周期: 95.438分钟
每日圈数: 15.088279
详细信息
固有亮度:
5
最大亮度:
2.5
卫星平台:
Starlink v1.5
覆盖范围:
全球
运营商:
太空探索技术公司
运营商所在国:
美国
制造商(研发单位):
太空探索技术公司
制造商所在国:
美国
使用方式:
暂无
卫星简介
星链(Starlink)计划是由太空探索技术公司(SpaceX)提出的一个巨型低轨卫星互联网星座项目,计划在2019年至2024年间在太空搭建由约1.2万颗卫星组成的“星链”网络,其中1584颗将部署在地球上空550千米处的近地轨道,并从2020年开始工作。该卫星仍在工作。
2D轨道图
3D轨道图
轨道高度分析图
轨道倾角分析图
轨道综合分析图
查看轨道综合分析图